星链-37567(STARLINK-37567)

导读

STARLINK-37567(NORAD编号68903)是美国SpaceX公司星链(Starlink)低轨互联网星座的一颗卫星,隶属于星链大规模组网计划的一部分。星链项目旨在近地轨道部署超4万颗卫星,为全球提供高速卫星互联网服务,尤其覆盖基础设施匮乏区域。依托猎鹰9号可复用火箭技术,星链实现卫星低成本批量发射与部署,该卫星运行于近地轨道,承担天基通信传输任务,助力星链构建覆盖全球的低轨宽带网络,目前星链累计发射卫星已超万颗,活跃卫星占全球在轨卫星总量约三分之二,推动全球卫星互联网商业化落地。

Basic Information
目录编号:
68903
目录名称:
STARLINK-37567
国际标识:
2026-097J
轨道中心:
EARTH
卫星名称:
星链-37567
卫星全名:
星链-37567(STARLINK-37567)
卫星状态:
在轨 (已飞行127 天)
发射日期:
2026-04-30 UTC
国别 :
美国 (US)
星等 :
--
Orbit Information
数据来源 国际轨道数据 AOE轨道数据
星历时间 2026-09-04T14:36:12+0800
6小时前
查看轨道信息
2026-09-02T23:00:00+0800
1天前
查看轨道信息
半长轴 6843.673km 6843.751km
偏心率 0.0001856 0.0002331
轨道倾角 97.286° 97.289°
近地点辐角 88.005° 88.941°
升交点赤经 81.622° 79.996°
平近点角 272.141° 167.701°
近地点 464.265km 464.018km
远地点 466.807km 467.21km
周期 93.906分钟 93.908分钟
每日圈数 15.334477 15.334213
Detailed Information
固有亮度:
5
最大亮度:
2.5
卫星平台:
Starlink V1.0
覆盖范围:
全球
运营商:
太空探索技术公司
运营商所在国:
美国
制造商(研发单位):
太空探索技术公司
制造商所在国:
美国
使用方式:
暂无
Satellite Introduction
Starlink 计划是 SpaceX 推出的全球卫星互联网项目,通过发射低轨道卫星,为全球尤其是偏远地区提供高速、低延迟的互联网服务。自 2019 年起,Starlink 已部署数千颗卫星,旨在缩小全球数字鸿沟,推动互联网普及。该项目还为军事、航空等行业提供通信支持,带来广泛经济效益。
2D Orbit Map
3D Orbit Map
Orbit Altitude Analysis Chart
Orbit Inclination Analysis Chart
Orbit Comprehensive Analysis Chart
View Comprehensive Chart
Conjunction Data List
Event ID Objects TCA Miss Dist (km) Collision Risk Probability Collision Risk Index (CRI) Action
CDM_260905-183306-309506-890321
2026-09-05T
18:33:54+0000
2.011 km
极远距离
2.863108E-6 低风险 0.44
CDM_260904-202306-394206-890321
2026-09-04T
20:23:19+0000
1.927 km
极远距离
2.73353E-6 低风险 0.44
CDM_260905-131905-475906-890322
2026-09-05T
13:19:55+0000
2.970 km
极远距离
1.315998E-6 低风险 0.37
CDM_260904-173205-327406-890321
2026-09-04T
17:32:17+0000
2.578 km
极远距离
9.655865E-7 极低风险 0.35